KC8RFE-1 Weather Reports


Display with metric or nautical units.
time (UTC)temp
F
wind
direction
speed
MPH
gust
MPH
rain 1hr
in
rain 24hr
in
rain mn
in
humidity
%
barometer
mb
20260905234637 86 36 11.0 20.0 0.00 0.00 0.00 5 988.9
20260905234137 87 29 12.0 18.0 0.00 0.00 0.00 5 988.7
20260905233637 89 34 7.0 14.0 0.00 0.00 0.00 5 988.7
20260905233137 90 20 4.0 8.0 0.00 0.00 0.00 5 988.6
20260905232637 90 335 3.0 5.0 0.00 0.00 0.00 5 988.5
20260905232137 91 347 5.0 8.0 0.00 0.00 0.00 5 988.5
20260905231637 92 11 4.0 8.0 0.00 0.00 0.00 5 988.4
20260905231137 93 35 4.0 8.0 0.00 0.00 0.00 5 988.4
20260905230637 94 18 3.0 5.0 0.00 0.00 0.00 5 988.3
20260905230137 94 316 3.0 5.0 0.00 0.00 0.00 5 988.2
20260905225637 95 0 4.0 7.0 0.00 0.00 0.00 5 988.2
20260905225137 95 258 2.0 3.0 0.00 0.00 0.00 5 988.2
20260905224637 94 14 2.0 4.0 0.00 0.00 0.00 5 988.2
20260905224137 94 326 4.0 9.0 0.00 0.00 0.00 5 988.4
20260905223637 94 28 4.0 8.0 0.00 0.00 0.00 5 988.4
20260905223137 95 334 4.0 7.0 0.00 0.00 0.00 5 988.4
20260905222637 94 337 3.0 8.0 0.00 0.00 0.00 5 988.4
20260905222138 95 349 5.0 8.0 0.00 0.00 0.00 5 988.4
20260905221638 94 313 3.0 5.0 0.00 0.00 0.00 5 988.4
20260905221138 94 23 8.0 11.0 0.00 0.00 0.00 5 988.4
20260905220638 95 1 4.0 7.0 0.00 0.00 0.00 5 988.3
20260905220138 95 316 2.0 4.0 0.00 0.00 0.00 5 988.2
20260905215638 96 18 4.0 8.0 0.00 0.00 0.00 5 988.2
20260905215138 96 316 3.0 6.0 0.00 0.00 0.00 5 988.2
20260905214638 95 30 5.0 11.0 0.00 0.00 0.00 5 988.2
20260905214138 96 22 6.0 10.0 0.00 0.00 0.00 5 988.2
20260905213638 97 27 5.0 8.0 0.00 0.00 0.00 5 988.2
20260905213138 97 358 5.0 9.0 0.00 0.00 0.00 5 988.2
20260905212638 97 342 2.0 7.0 0.00 0.00 0.00 5 988.4
20260905212138 97 0 4.0 6.0 0.00 0.00 0.00 5 988.4
20260905211638 97 292 3.0 5.0 0.00 0.00 0.00 5 988.4
20260905211138 96 326 3.0 6.0 0.00 0.00 0.00 5 988.4
20260905210638 97 28 6.0 8.0 0.00 0.00 0.00 5 988.4
20260905210137 98 344 3.0 7.0 0.00 0.00 0.00 5 988.4
20260905205638 97 316 4.0 6.0 0.00 0.00 0.00 5 988.4
20260905205137 97 19 4.0 8.0 0.00 0.00 0.00 5 988.4
20260905204637 97 2 4.0 6.0 0.00 0.00 0.00 5 988.4
20260905204137 97 22 4.0 6.0 0.00 0.00 0.00 5 988.5
20260905203637 97 18 4.0 8.0 0.00 0.00 0.00 5 988.5
20260905203137 97 27 5.0 7.0 0.00 0.00 0.00 5 988.5
20260905202637 98 5 3.0 6.0 0.00 0.00 0.00 5 988.5
20260905202137 98 315 2.0 4.0 0.00 0.00 0.00 5 988.5
20260905201637 98 331 3.0 6.0 0.00 0.00 0.00 5 988.4
20260905201137 100 273 3.0 5.0 0.00 0.00 0.00 4 988.4
20260905200637 101 319 2.0 4.0 0.00 0.00 0.00 4 988.5
20260905200137 102 244 3.0 4.0 0.00 0.00 0.00 4 988.5
20260905195637 102 280 4.0 6.0 0.00 0.00 0.00 4 988.5
20260905195137 102 321 4.0 6.0 0.00 0.00 0.00 4 988.5
20260905194637 102 350 3.0 6.0 0.00 0.00 0.00 4 988.5
20260905194137 102 358 3.0 6.0 0.00 0.00 0.00 4 988.7
20260905193637 101 310 3.0 6.0 0.00 0.00 0.00 4 988.7
20260905193137 101 247 4.0 8.0 0.00 0.00 0.00 4 988.7
20260905192637 101 273 4.0 6.0 0.00 0.00 0.00 4 988.9
20260905192137 101 321 3.0 6.0 0.00 0.00 0.00 4 988.9
20260905191637 102 9 5.0 7.0 0.00 0.00 0.00 4 988.9
20260905191137 102 3 4.0 10.0 0.00 0.00 0.00 4 988.9
20260905190637 103 289 3.0 4.0 0.00 0.00 0.00 4 989.0
20260905190137 102 23 3.0 5.0 0.00 0.00 0.00 4 989.0
20260905185637 103 15 4.0 8.0 0.00 0.00 0.00 4 989.1
20260905185137 102 243 2.0 4.0 0.00 0.00 0.00 4 989.2
20260905184637 102 2 3.0 5.0 0.00 0.00 0.00 4 989.2
20260905184137 101 359 3.0 4.0 0.00 0.00 0.00 4 989.2
20260905183637 102 259 3.0 5.0 0.00 0.00 0.00 4 989.2
20260905183137 102 279 2.0 2.0 0.00 0.00 0.00 4 989.2
20260905182638 101 264 4.0 9.0 0.00 0.00 0.00 4 989.2
20260905182138 101 288 3.0 5.0 0.00 0.00 0.00 4 989.2
20260905181638 99 327 3.0 7.0 0.00 0.00 0.00 4 989.4
20260905181138 98 350 3.0 8.0 0.00 0.00 0.00 4 989.4
20260905180638 98 334 2.0 4.0 0.00 0.00 0.00 4 989.4
20260905180138 98 339 3.0 6.0 0.00 0.00 0.00 4 989.4
20260905175638 99 3 4.0 8.0 0.00 0.00 0.00 4 989.4
20260905175138 99 282 3.0 5.0 0.00 0.00 0.00 4 989.4
20260905174638 99 351 4.0 6.0 0.00 0.00 0.00 4 989.4
20260905174138 99 267 3.0 4.0 0.00 0.00 0.00 4 989.4
20260905173638 99 265 3.0 6.0 0.00 0.00 0.00 4 989.4
20260905173138 99 254 4.0 6.0 0.00 0.00 0.00 4 989.4
20260905172638 98 257 4.0 8.0 0.00 0.00 0.00 4 989.5
20260905172138 99 277 4.0 7.0 0.00 0.00 0.00 4 989.5
20260905171638 101 271 5.0 10.0 0.00 0.00 0.00 4 989.6
20260905171138 100 61 3.0 6.0 0.00 0.00 0.00 4 989.7
20260905170638 100 261 4.0 7.0 0.00 0.00 0.00 4 989.7
20260905170138 100 261 4.0 6.0 0.00 0.00 0.00 4 989.9
20260905165638 100 257 4.0 9.0 0.00 0.00 0.00 4 989.9
20260905165137 100 279 4.0 6.0 0.00 0.00 0.00 4 989.9
20260905164638 99 254 4.0 9.0 0.00 0.00 0.00 4 989.9
20260905164137 99 265 4.0 10.0 0.00 0.00 0.00 4 989.8
20260905163637 100 275 3.0 7.0 0.00 0.00 0.00 4 989.7
20260905163137 99 259 4.0 10.0 0.00 0.00 0.00 4 989.7
20260905162637 99 250 4.0 7.0 0.00 0.00 0.00 4 989.7
20260905162137 98 261 2.0 4.0 0.00 0.00 0.00 5 989.7
20260905161637 96 267 4.0 6.0 0.00 0.00 0.00 5 989.7
20260905161137 96 269 6.0 9.0 0.00 0.00 0.00 5 989.7
20260905160637 96 260 4.0 6.0 0.00 0.00 0.00 5 989.7
20260905160137 97 273 3.0 5.0 0.00 0.00 0.00 5 989.9
20260905155637 98 283 5.0 7.0 0.00 0.00 0.00 4 989.9
20260905155137 99 276 3.0 6.0 0.00 0.00 0.00 5 989.7
20260905154637 98 273 3.0 6.0 0.00 0.00 0.00 5 989.7
20260905154137 0 225 3.0 3.0 0.00 0.00 0.00 100
20260905153637 97 270 5.0 7.0 0.00 0.00 0.00 5 989.7
20260905153137 98 272 3.0 4.0 0.00 0.00 0.00 5 989.6
20260905152637 97 275 3.0 4.0 0.00 0.00 0.00 5 989.5
20260905152137 97 280 3.0 4.0 0.00 0.00 0.00 5 989.5
20260905151637 97 271 2.0 5.0 0.00 0.00 0.00 5 989.4
20260905151137 96 277 3.0 4.0 0.00 0.00 0.00 5 989.4
20260905150637 96 274 4.0 7.0 0.00 0.00 0.00 5 989.4
20260905150137 96 274 4.0 6.0 0.00 0.00 0.00 5 989.4
20260905145637 97 271 3.0 5.0 0.00 0.00 0.00 5 989.4
20260905145137 97 279 2.0 4.0 0.00 0.00 0.00 5 989.4
20260905144637 96 280 3.0 5.0 0.00 0.00 0.00 5 989.4
20260905144308 95 293 2.0 4.0 0.00 0.00 0.00 5 989.7
20260905144137 95 293 2.0 4.0 0.00 0.00 0.00 5 989.7
20260905143637 93 293 2.0 3.0 0.00 0.00 0.00 5 989.7
20260905143308 92 270 4.0 5.0 0.00 0.00 0.00 5 989.7
20260905143137 92 270 4.0 5.0 0.00 0.00 0.00 5 989.7
20260905142638 91 268 3.0 5.0 0.00 0.00 0.00 5 989.7
20260905142309 91 270 4.0 6.0 0.00 0.00 0.00 5 989.7
20260905142138 91 270 4.0 6.0 0.00 0.00 0.00 5 989.7
20260905141638 91 267 4.0 5.0 0.00 0.00 0.00 5 989.7
20260905141310 91 270 3.0 5.0 0.00 0.00 0.00 5 989.7
20260905141138 91 270 3.0 5.0 0.00 0.00 0.00 5 989.7
20260905140638 92 272 4.0 5.0 0.00 0.00 0.00 5 989.7
20260905140309 91 299 1.0 2.0 0.00 0.00 0.00 5 989.7
20260905140138 91 299 1.0 2.0 0.00 0.00 0.00 5 989.7
20260905135638 88 341 2.0 5.0 0.00 0.00 0.00 5 989.7
20260905135138 87 270 4.0 5.0 0.00 0.00 0.00 6 989.5
20260905134638 86 270 3.0 4.0 0.00 0.00 0.00 6 989.5
20260905134309 85 270 4.0 5.0 0.00 0.00 0.00 6 989.7
20260905134138 85 270 4.0 5.0 0.00 0.00 0.00 6 989.7
20260905133638 85 270 4.0 6.0 0.00 0.00 0.00 6 989.7
20260905133138 85 267 5.0 6.0 0.00 0.00 0.00 6 989.7
20260905132638 85 267 4.0 5.0 0.00 0.00 0.00 6 989.7
20260905132138 85 266 4.0 6.0 0.00 0.00 0.00 6 989.7
20260905131638 84 270 4.0 5.0 0.00 0.00 0.00 6 989.7
20260905131138 85 269 4.0 5.0 0.00 0.00 0.00 6 989.7
20260905130638 85 268 3.0 4.0 0.00 0.00 0.00 6 989.7
20260905130138 84 270 3.0 5.0 0.00 0.00 0.00 6 989.7
20260905125638 84 272 3.0 4.0 0.00 0.00 0.00 6 989.7
20260905125137 84 273 3.0 4.0 0.00 0.00 0.00 6 989.4
20260905124637 84 270 2.0 4.0 0.00 0.00 0.00 6 989.4
20260905124137 83 272 2.0 3.0 0.00 0.00 0.00 6 989.4
20260905123637 82 271 1.0 2.0 0.00 0.00 0.00 6 989.4
20260905123137 81 270 2.0 3.0 0.00 0.00 0.00 6 989.4
20260905122637 81 270 2.0 2.0 0.00 0.00 0.00 6 989.4
20260905122137 81 270 2.0 2.0 0.00 0.00 0.00 7 989.4
20260905121637 80 0 0.0 0.0 0.00 0.00 0.00 7 989.2
20260905121137 79 0 0.0 0.0 0.00 0.00 0.00 7 989.2
20260905120637 78 0 0.0 0.0 0.00 0.00 0.00 7 989.2
20260905120137 77 0 0.0 0.0 0.00 0.00 0.00 7 989.2
20260905115637 77 270 0.0 1.0 0.00 0.00 0.00 7 989.2
20260905115137 77 270 0.0 2.0 0.00 0.00 0.00 7 989.2
20260905114637 77 0 0.0 0.0 0.00 0.00 0.00 7 989.2
20260905114137 76 270 0.0 2.0 0.00 0.00 0.00 7 989.2
20260905113637 76 270 1.0 2.0 0.00 0.00 0.00 7 989.2
20260905113137 76 261 0.0 2.0 0.00 0.00 0.00 7 989.2
20260905112637 76 0 0.0 0.0 0.00 0.00 0.00 7 989.1
20260905112137 76 0 0.0 0.0 0.00 0.00 0.00 7 989.1
20260905111637 76 0 0.0 0.0 0.00 0.00 0.00 7 989.1
20260905111137 76 36 0.0 1.0 0.00 0.00 0.00 7 989.1
20260905110637 77 0 0.0 0.0 0.00 0.00 0.00 7 989.1
20260905110137 77 0 0.0 0.0 0.00 0.00 0.00 7 989.1
20260905105637 77 0 0.0 0.0 0.00 0.00 0.00 7 989.1
20260905105137 77 0 0.0 0.0 0.00 0.00 0.00 7 989.1
20260905104637 77 0 0.0 0.0 0.00 0.00 0.00 7 989.1
20260905104137 77 292 0.0 1.0 0.00 0.00 0.00 7 989.2
20260905103637 77 270 2.0 2.0 0.00 0.00 0.00 7 989.2
20260905103137 77 0 0.0 0.0 0.00 0.00 0.00 7 989.3
20260905102637 77 0 0.0 0.0 0.00 0.00 0.00 7 989.4
20260905102137 77 0 0.0 0.0 0.00 0.00 0.00 7 989.4
20260905101637 77 0 0.0 0.0 0.00 0.00 0.00 7 989.2
20260905101138 77 0 0.0 0.0 0.00 0.00 0.00 7 989.2
20260905100638 77 0 0.0 0.0 0.00 0.00 0.00 7 989.2
20260905100138 77 0 0.0 0.0 0.00 0.00 0.00 7 989.2
20260905095638 77 0 0.0 0.0 0.00 0.00 0.00 7 989.2
20260905095138 77 0 0.0 0.0 0.00 0.00 0.00 7 989.4
20260905094638 77 0 0.0 0.0 0.00 0.00 0.00 7 989.4
20260905094138 77 0 0.0 0.0 0.00 0.00 0.00 7 989.3
20260905093638 77 0 0.0 0.0 0.00 0.00 0.00 7 989.2
20260905093138 77 0 0.0 0.0 0.00 0.00 0.00 7 989.2
20260905092638 77 0 0.0 0.0 0.00 0.00 0.00 7 989.2
20260905092138 77 0 0.0 0.0 0.00 0.00 0.00 7 989.2
20260905091638 77 0 0.0 0.0 0.00 0.00 0.00 7 989.1
20260905091138 77 0 0.0 0.0 0.00 0.00 0.00 7 989.1
20260905090638 77 0 0.0 0.0 0.00 0.00 0.00 7 989.1
20260905090138 77 0 0.0 0.0 0.00 0.00 0.00 7 989.1
20260905085638 77 0 0.0 0.0 0.00 0.00 0.00 7 989.1
20260905085138 77 0 0.0 0.0 0.00 0.00 0.00 7 989.1
20260905084638 77 0 0.0 0.0 0.00 0.00 0.00 7 989.1
20260905084137 77 0 0.0 0.0 0.00 0.00 0.00 7 989.1
20260905083637 77 0 0.0 0.0 0.00 0.00 0.00 7 989.1
20260905083137 77 0 0.0 0.0 0.00 0.00 0.00 7 989.0
20260905082637 77 0 0.0 0.0 0.00 0.00 0.00 7 988.9
20260905082137 77 0 0.0 0.0 0.00 0.00 0.00 7 988.9
20260905081637 77 0 0.0 0.0 0.00 0.00 0.00 7 988.9
20260905081137 77 0 0.0 0.0 0.00 0.00 0.00 7 988.9
20260905080637 77 0 0.0 0.0 0.00 0.00 0.00 7 988.8
20260905080137 78 0 0.0 0.0 0.00 0.00 0.00 7 988.7
20260905075637 78 271 1.0 2.0 0.00 0.00 0.00 7 988.7
20260905075137 78 265 0.0 2.0 0.00 0.00 0.00 7 988.9
20260905074637 78 270 2.0 3.0 0.00 0.00 0.00 7 988.9
20260905074137 78 270 2.0 3.0 0.00 0.00 0.00 7 988.9
20260905073637 78 275 1.0 3.0 0.00 0.00 0.00 7 988.9
20260905073137 79 0 0.0 0.0 0.00 0.00 0.00 7 988.9
20260905072637 79 0 0.0 0.0 0.00 0.00 0.00 7 988.9
20260905072137 79 0 0.0 0.0 0.00 0.00 0.00 7 988.9
20260905071637 79 0 0.0 0.0 0.00 0.00 0.00 7 989.1
20260905071137 79 0 0.0 0.0 0.00 0.00 0.00 7 989.2
20260905070637 79 0 0.0 0.0 0.00 0.00 0.00 7 989.2
20260905070137 79 0 0.0 0.0 0.00 0.00 0.00 7 989.2
20260905065637 79 0 0.0 0.0 0.00 0.00 0.00 7 989.2
20260905065137 79 0 0.0 0.0 0.00 0.00 0.00 7 989.4
20260905064637 79 0 0.0 0.0 0.00 0.00 0.00 7 989.4
20260905064137 79 0 0.0 0.0 0.00 0.00 0.00 7 989.4
20260905063637 79 0 0.0 0.0 0.00 0.00 0.00 7 989.4
20260905063137 79 0 0.0 0.0 0.00 0.00 0.00 7 989.4
20260905062637 79 0 0.0 0.0 0.00 0.00 0.00 7 989.4
20260905062137 80 0 0.0 0.0 0.00 0.00 0.00 7 989.4
20260905061637 80 0 0.0 0.0 0.00 0.00 0.00 7 989.4
20260905061138 80 0 0.0 0.0 0.00 0.00 0.00 7 989.4
20260905060638 80 0 0.0 0.0 0.00 0.00 0.00 7 989.4
20260905060138 80 0 0.0 0.0 0.00 0.00 0.00 7 989.6
20260905055638 80 0 0.0 0.0 0.00 0.00 0.00 7 989.6
20260905055138 80 0 0.0 0.0 0.00 0.00 0.00 7 989.6
20260905054638 80 0 0.0 0.0 0.00 0.00 0.00 7 989.6
20260905054138 80 0 0.0 0.0 0.00 0.00 0.00 7 989.6
20260905053638 80 0 0.0 0.0 0.00 0.00 0.00 7 989.6
20260905053138 80 0 0.0 0.0 0.00 0.00 0.00 7 989.6
20260905052638 81 0 0.0 0.0 0.00 0.00 0.00 7 989.4
20260905052138 81 0 0.0 0.0 0.00 0.00 0.00 7 989.4
20260905051638 81 0 0.0 0.0 0.00 0.00 0.00 7 989.4
20260905051138 81 0 0.0 0.0 0.00 0.00 0.00 7 989.4
20260905050638 81 0 0.0 0.0 0.00 0.00 0.00 7 989.5
20260905050138 81 0 0.0 0.0 0.00 0.00 0.00 7 989.6
20260905045638 81 0 0.0 0.0 0.00 0.00 0.00 7 989.6
20260905045138 81 0 0.0 0.0 0.00 0.00 0.00 7 989.5
20260905044638 81 0 0.0 0.0 0.00 0.00 0.00 6 989.5
20260905044138 81 0 0.0 0.0 0.00 0.00 0.00 6 989.6
20260905043637 81 0 0.0 0.0 0.00 0.00 0.00 6 989.7
20260905043137 81 0 0.0 0.0 0.00 0.00 0.00 6 989.7
20260905042637 81 0 0.0 0.0 0.00 0.00 0.00 6 989.7
20260905042137 82 0 0.0 0.0 0.00 0.00 0.00 6 989.7
20260905041637 82 0 0.0 0.0 0.00 0.00 0.00 6 989.7
20260905041137 82 0 0.0 0.0 0.00 0.00 0.00 6 989.7
20260905040637 82 0 0.0 0.0 0.00 0.00 0.00 6 989.7
20260905040137 82 0 0.0 0.0 0.00 0.00 0.00 6 989.7
20260905035637 82 0 0.0 0.0 0.00 0.00 0.00 6 989.7
20260905035137 82 0 0.0 0.0 0.00 0.00 0.00 6 989.7
20260905034637 82 0 0.0 0.0 0.00 0.00 0.00 6 989.7
20260905034137 82 0 0.0 0.0 0.00 0.00 0.00 6 989.7
20260905033637 82 0 0.0 0.0 0.00 0.00 0.00 6 989.7
20260905033137 82 0 0.0 0.0 0.00 0.00 0.00 6 989.7
20260905032637 82 0 0.0 0.0 0.00 0.00 0.00 6 989.7
20260905032137 82 0 0.0 0.0 0.00 0.00 0.00 6 989.7
20260905031637 83 0 0.0 0.0 0.00 0.00 0.00 6 989.7
20260905031137 83 0 0.0 0.0 0.00 0.00 0.00 6 989.7
20260905030637 83 0 0.0 0.0 0.00 0.00 0.00 6 989.7
20260905030137 83 0 0.0 0.0 0.00 0.00 0.00 6 989.9
20260905025637 83 0 0.0 0.0 0.00 0.00 0.00 6 989.9
20260905025137 83 0 0.0 0.0 0.00 0.00 0.00 6 989.7
20260905024637 83 0 0.0 0.0 0.00 0.00 0.00 6 989.7
20260905024137 84 0 0.0 0.0 0.00 0.00 0.00 6 989.5
20260905023637 0 0 0.0 0.0 0.00 0.00 0.00 100
20260905023137 0 0 0.0 0.0 0.00 0.00 0.00 100
20260905022637 0 0 0.0 0.0 0.00 0.00 0.00 100
20260905022137 0 0 0.0 0.0 0.00 0.00 0.00 100
20260905021637 0 0 0.0 0.0 0.00 0.00 0.00 100
20260905021137 0 0 0.0 0.0 0.00 0.00 0.00 100
20260905020638 0 0 0.0 0.0 0.00 0.00 0.00 100
20260905020138 0 0 0.0 0.0 0.00 0.00 0.00 100
20260905015638 0 0 0.0 0.0 0.00 0.00 0.00 100
20260905015138 0 0 0.0 0.0 0.00 0.00 0.00 100
20260905014638 0 0 0.0 0.0 0.00 0.00 0.00 100
20260905014138 0 0 0.0 0.0 0.00 0.00 0.00 100
20260905013638 0 0 0.0 0.0 0.00 0.00 0.00 100
20260905013138 0 0 0.0 0.0 0.00 0.00 0.00 100
20260905012638 0 0 0.0 0.0 0.00 0.00 0.00 100
20260905012138 0 0 0.0 0.0 0.00 0.00 0.00 100
20260905011638 0 0 0.0 0.0 0.00 0.00 0.00 100
20260905011138 0 0 0.0 0.0 0.00 0.00 0.00 100
20260905010638 0 0 0.0 0.0 0.00 0.00 0.00 100
20260905010138 0 0 0.0 0.0 0.00 0.00 0.00 100
20260905005638 0 0 0.0 0.0 0.00 0.00 0.00 100
20260905005138 0 0 0.0 0.0 0.00 0.00 0.00 100
20260905004638 0 0 0.0 0.0 0.00 0.00 0.00 100
20260905004138 0 0 0.0 0.0 0.00 0.00 0.00 100
20260905003638 0 0 0.0 0.0 0.00 0.00 0.00 100
20260905003137 0 0 0.0 0.0 0.00 0.00 0.00 100
20260905002637 0 0 0.0 0.0 0.00 0.00 0.00 100
20260905002137 0 0 0.0 0.0 0.00 0.00 0.00 100
20260905001637 0 0 0.0 0.0 0.00 0.00 0.00 100
20260905001137 0 0 0.0 0.0 0.00 0.00 0.00 100
20260905000637 0 0 0.0 0.0 0.00 0.00 0.00 100
20260905000137 0 0 0.0 0.0 0.00 0.00 0.00 100
20260904235637 0 0 0.0 0.0 0.00 0.00 0.00 100
20260904235137 0 0 0.0 0.0 0.00 0.00 0.00 100